Home   Weather   Kaunas   Past weeks

Flag for Lithuania Past Weather in Kaunas, Lithuania — Yesterday and Last 2 Weeks

Now
59 °F

Passing clouds.


Feels Like: 58 °F
Forecast: 51 / 63 °F
Wind: 8 mph from Southwest

Location: Kaunas

Current Time: Sep 30, 2016 at 4:37:57 AM

Latest Report: Sep 30, 2016 at 4:20 AM


Visibility: N/A

Pressure: 29.68 "Hg

Humidity: 77%

Dew Point: 52 °F

Location of KaunasLocation

Past Weather in Kaunas — Graph

°F

Kaunas Temperature Yesterday

Maximum temperature yesterday: 64 °F (at 1:50 PM)
Minimum temperature yesterday: 54 °F (at 12:20 AM)
Average temperature yesterday: 59 °F

High & Low Weather Summary for the Past Weeks

 TemperatureHumidityPressure
High68 °F (Sep 15, 2:50 PM)100% (Sep 16, 5:20 AM)30.39 "Hg (Sep 16, 5:20 AM)
Low34 °F (Sep 26, 5:50 AM)43% (Sep 15, 1:50 PM)29.68 "Hg (Sep 30, 2:20 AM)
Average51 °F79%30.11 "Hg
* Reported Sep 15 3:20 AM — Sep 30 3:20 AM, Kaunas, Weather by CustomWeather, © 2016

Note: Actual official high and low records may vary slightly from our data, if they occured in-between our weather recording intervals... More about our weather records

Advertising

Kaunas Weather History for the Previous 24 Hours

Scroll right to see more
 ConditionsComfort  
Time TempWeatherWind HumidityBarometerVisibility
3:20 AM
Fri, Sep 30
59 °FPassing clouds.8 mph82%29.68 "HgN/A
2:50 AM59 °FPassing clouds.9 mph82%29.68 "HgN/A
2:20 AM61 °FPassing clouds.9 mph83%29.68 "HgN/A
1:50 AM61 °FOvercast.8 mph83%29.71 "HgN/A
1:20 AM61 °FOvercast.7 mph83%29.71 "HgN/A
12:50 AM61 °FPassing clouds.7 mph83%29.71 "HgN/A
12:20 AM61 °FOvercast.8 mph83%29.74 "HgN/A
11:50 PM
Thu, Sep 29
61 °FPassing clouds.10 mph83%29.74 "HgN/A
11:20 PM61 °FPassing clouds.8 mph83%29.74 "HgN/A
10:50 PM61 °FOvercast.9 mph83%29.74 "HgN/A
10:20 PM61 °FMostly cloudy.9 mph83%29.74 "HgN/A
9:50 PM61 °FMostly cloudy.9 mph83%29.74 "HgN/A
9:20 PM61 °FMostly cloudy.9 mph83%29.77 "HgN/A
8:50 PM61 °FOvercast.9 mph83%29.77 "HgN/A
8:20 PM61 °FOvercast.8 mph77%29.80 "HgN/A
7:50 PM61 °FOvercast.9 mph77%29.80 "HgN/A
7:20 PM61 °FOvercast.8 mph77%29.80 "HgN/A
6:50 PM61 °FOvercast.7 mph77%29.83 "HgN/A
6:20 PM61 °FOvercast.7 mph77%29.83 "HgN/A
5:50 PM61 °FOvercast.8 mph77%29.83 "HgN/A
5:20 PM61 °FOvercast.12 mph77%29.86 "HgN/A
4:50 PM63 °FOvercast.12 mph73%29.86 "HgN/A
4:20 PM63 °FMore clouds than sun.10 mph73%29.86 "HgN/A
3:50 PM63 °FMore clouds than sun.10 mph73%29.86 "HgN/A
3:20 PM63 °FMostly cloudy.14 mph68%29.86 "HgN/A
2:50 PM64 °FMore clouds than sun.10 mph68%29.89 "HgN/A
2:20 PM63 °FBroken clouds.10 mph68%29.86 "HgN/A
1:50 PM64 °FBroken clouds.15 mph60%29.86 "HgN/A
1:20 PM63 °FBroken clouds.12 mph68%29.86 "HgN/A
12:50 PM63 °FBroken clouds.13 mph68%29.89 "HgN/A
12:20 PM61 °FBroken clouds.12 mph72%29.89 "HgN/A
11:50 AM61 °FBroken clouds.12 mph72%29.89 "HgN/A
11:20 AM59 °FBroken clouds.14 mph77%29.89 "HgN/A
10:50 AM59 °FBroken clouds.13 mph77%29.89 "HgN/A
10:20 AM59 °FBroken clouds.12 mph82%29.86 "HgN/A
9:50 AM57 °FBroken clouds.12 mph88%29.86 "HgN/A
9:20 AM55 °FBroken clouds.10 mph94%29.86 "HgN/A
8:50 AM54 °FBroken clouds.9 mph94%29.86 "HgN/A
8:20 AM54 °FPartly sunny.10 mph94%29.86 "HgN/A
7:50 AM54 °FSunny.7 mph94%29.86 "Hg10 mi
7:20 AM54 °FClear.10 mph94%29.83 "Hg10 mi
6:50 AM54 °FPartly cloudy.10 mph94%29.86 "HgN/A
6:20 AM54 °FPartly cloudy.7 mph94%29.83 "HgN/A
5:50 AM55 °FPassing clouds.8 mph88%29.83 "HgN/A
5:20 AM55 °FOvercast.10 mph94%29.83 "HgN/A
4:50 AM55 °FMostly cloudy.9 mph94%29.83 "HgN/A
4:20 AM55 °FPassing clouds.8 mph94%29.83 "HgN/A
Weather by CustomWeather, © 2016

See weather overviewHow to use our weather pages